Volver al catálogo

THORAD AGENA D DEB

ActivoSSO
NORAD 4756·DEBRIS·🇺🇸 United States

Lanzado Apr 8, 1970 desde Vandenberg Space Force Base

Loading…

Próximos Pases (próximas 24 horas)

TLE

ActualizadoSource: Space-Track

Época: Sep 14, 2026, 02:20 UTC

1 04756U 70025DE  26257.09785878  .00000031  00000-0  12340-3 0  9997
2 04756 100.2298 299.0500 0027031 325.9232  34.0164 13.49431672774107

Sigue THORAD AGENA D DEB en tiempo real con AllMySat

Download on the App Store